Location: Alafon
(8.4500°N, 4.2333°E)
Time: 22:23:03
(UTC+00:00)

deb Explorer IX - Pass Details

Date: 24 July 2021
Orbit: 545 x 1091 km, 38.8° (Epoch: 19 September)

Event Time Altitude Azimuth Distance (km) Brightness Sun altitude
Rises 20:39:17 0° 335° (NNW) 3,869 ? -35.4°
Reaches altitude 10° 20:43:40 10° 358° (N) 2,928 ? -36.3°
Enters shadow 20:46:37 14° 23° (NNE) 2,629 ? -36.9°
Maximum altitude 20:47:13 14° 28° (NNE) 2,617 - -37.0°
Drops below altitude 10° 20:50:44 10° 58° (ENE) 2,881 - -37.8°
Sets 20:54:57 0° 82° (E) 3,764 - -38.6°
